Date String (YYYY-MM-DD hh:mm:ss) UTC,Instrument flags,absolute air pressure of the measurement (hPa),sample flow rate (lpm),inlet stack bypass flow (lpm),air temperature of the measurement (°C),ambient temperature measured by the external sensor (°C),aerosol sample conditioner tube jacket temperature (°C),OPC LED temperature (°C),internal box temperature (°C),relative humidity of the measurement (%),span deviation,mass concentration of particles derived from Lorenz-Mie calculation of OPC scattering (μg/m³),mass concentration of particles derived from Lorenz-Mie calculation of OPC scattering (μg/m³),mass concentration of particles derived from Lorenz-Mie calculation of OPC scattering (μg/m³)
DateTimeUTC,F1_M11,P_M11,Q1_M11,Q2_M11,T1_M11,T2_M11,T3_M11,T4_M11,T5_M11,U1_M11,ZSPAN_M11,X2_M11,X0_M11,X1_M11
2024-05-27 22:00:00,SystemResetWarning,0831.3,5.00,000.00,030.1,029.4,000.0,038.3,031.8,013.5,0000.0,0003.79,0009.78,0003.11
2024-05-27 22:01:00,SystemResetWarning,0831.3,4.99,000.00,030.1,029.5,000.0,038.3,031.9,013.8,0000.0,0003.77,0009.63,0003.11
2024-05-27 22:02:00,SystemResetWarning,0831.3,4.99,000.00,030.2,029.6,000.0,038.3,031.9,014.0,0000.0,0003.74,0009.45,0003.10
2024-05-27 22:03:00,SystemResetWarning,0831.3,5.00,000.00,030.2,029.7,000.0,038.3,032.0,014.2,0000.0,0003.73,0009.37,0003.08
2024-05-27 22:04:00,SystemResetWarning,0831.3,5.00,000.00,030.3,029.7,000.0,038.4,032.0,013.4,0000.0,0003.72,0009.23,0003.09
2024-05-27 22:05:00,SystemResetWarning,0831.3,4.99,000.00,030.1,027.8,000.0,038.4,031.1,013.5,0000.0,0003.72,0008.57,0003.10
2024-05-27 22:06:00,SystemResetWarning,0831.3,5.02,000.00,029.7,026.8,000.0,038.4,030.6,013.7,0000.0,0003.73,0008.55,0003.10
2024-05-27 22:07:00,SystemResetWarning,0831.3,4.99,000.00,029.6,027.1,000.0,038.4,030.6,014.4,0000.0,0003.74,0008.54,0003.10
2024-05-27 22:08:00,SystemResetWarning,0831.3,4.98,000.00,029.6,027.5,000.0,038.3,030.9,014.5,0000.0,0003.72,0008.24,0003.12
2024-05-27 22:09:00,SystemResetWarning,0831.3,4.99,000.00,029.7,027.9,000.0,038.2,031.1,014.0,0000.0,0003.67,0008.51,0003.11
2024-05-27 22:10:00,SystemResetWarning,0831.2,5.00,000.00,029.7,028.2,000.0,038.2,031.2,015.0,0000.0,0003.68,0008.78,0003.12
2024-05-27 22:11:00,SystemResetWarning,0831.3,5.01,000.00,029.7,028.5,000.0,038.2,031.4,014.9,0000.0,0003.74,0010.47,0003.13
2024-05-27 22:12:00,SystemResetWarning,0831.3,5.01,000.00,029.8,028.7,000.0,038.1,031.5,014.0,0000.0,0003.75,0011.64,0003.13
2024-05-27 22:13:00,SystemResetWarning,0831.3,5.00,000.00,029.9,028.9,000.0,038.2,031.5,013.8,0000.0,0003.76,0011.61,0003.14
2024-05-27 22:14:00,SystemResetWarning,0831.3,4.99,000.00,029.9,029.1,000.0,038.2,031.6,014.4,0000.0,0003.82,0011.87,0003.15
2024-05-27 22:15:00,SystemResetWarning,0831.3,5.00,000.00,030.0,029.3,000.0,038.2,031.7,014.8,0000.0,0003.84,0011.86,0003.15
2024-05-27 22:16:00,SystemResetWarning,0831.3,5.01,000.00,030.0,029.4,000.0,038.2,031.8,014.3,0000.0,0003.85,0012.47,0003.13
2024-05-27 22:17:00,SystemResetWarning,0831.3,5.00,000.00,030.1,029.5,000.0,038.3,031.9,013.8,0000.0,0003.86,0014.50,0003.13
2024-05-27 22:18:00,SystemResetWarning,0831.3,5.01,000.00,030.1,029.6,000.0,038.3,031.9,013.5,0000.0,0003.85,0015.10,0003.13
2024-05-27 22:19:00,SystemResetWarning,0831.3,5.00,000.00,030.2,029.7,000.0,038.3,032.0,013.9,0000.0,0003.83,0015.10,0003.12
2024-05-27 22:20:00,SystemResetWarning,0831.3,4.98,000.00,030.2,028.9,000.0,038.4,031.6,013.9,0000.0,0003.82,0014.73,0003.12
2024-05-27 22:21:00,SystemResetWarning,0831.2,5.02,000.00,029.8,027.0,000.0,038.4,030.6,014.7,0000.0,0003.83,0015.15,0003.11
2024-05-27 22:22:00,SystemResetWarning,0831.2,5.00,000.00,029.6,027.0,000.0,038.4,030.5,014.2,0000.0,0003.85,0014.47,0003.12
2024-05-27 22:23:00,SystemResetWarning,0831.3,5.00,000.00,029.6,027.4,000.0,038.3,030.7,013.8,0000.0,0003.85,0013.48,0003.13
2024-05-27 22:24:00,SystemResetWarning,0831.3,5.01,000.00,029.6,027.7,000.0,038.2,030.9,013.8,0000.0,0003.87,0013.52,0003.13
2024-05-27 22:25:00,SystemResetWarning,0831.3,5.00,000.00,029.6,028.1,000.0,038.1,031.1,014.2,0000.0,0003.85,0013.21,0003.13
2024-05-27 22:26:00,SystemResetWarning,0831.3,5.00,000.00,029.7,028.4,000.0,038.1,031.3,013.8,0000.0,0003.82,0013.00,0003.13
2024-05-27 22:27:00,SystemResetWarning,0831.3,5.00,000.00,029.7,028.6,000.0,038.1,031.4,014.0,0000.0,0003.82,0012.42,0003.14
2024-05-27 22:28:00,SystemResetWarning,0831.3,5.00,000.00,029.8,028.9,000.0,038.1,031.5,014.3,0000.0,0003.78,0010.33,0003.14
2024-05-27 22:29:00,SystemResetWarning,0831.3,5.00,000.00,029.9,029.0,000.0,038.1,031.6,013.7,0000.0,0003.76,0009.58,0003.13
2024-05-27 22:30:00,SystemResetWarning,0831.3,5.00,000.00,029.9,029.2,000.0,038.1,031.7,013.9,0000.0,0003.78,0009.61,0003.13
2024-05-27 22:31:00,SystemResetWarning,0831.3,5.00,000.00,030.0,029.3,000.0,038.2,031.8,013.5,0000.0,0003.79,0009.29,0003.13
2024-05-27 22:32:00,SystemResetWarning,0831.3,5.00,000.00,030.0,029.5,000.0,038.2,031.9,014.0,0000.0,0003.80,0008.93,0003.14
2024-05-27 22:33:00,SystemResetWarning,0831.3,4.99,000.00,030.1,029.6,000.0,038.2,031.9,013.3,0000.0,0003.78,0008.65,0003.13
2024-05-27 22:34:00,SystemResetWarning,0831.3,5.00,000.00,030.2,029.6,000.0,038.3,032.0,013.3,0000.0,0003.75,0008.46,0003.12
2024-05-27 22:35:00,SystemResetWarning,0831.3,4.99,000.00,030.2,029.7,000.0,038.3,032.0,013.6,0000.0,0003.75,0008.51,0003.11
2024-05-27 22:36:00,SystemResetWarning,0831.3,5.00,000.00,030.3,029.7,000.0,038.4,032.0,013.6,0000.0,0003.74,0008.69,0003.11
2024-05-27 22:37:00,SystemResetWarning,0831.3,5.00,000.00,030.1,027.8,000.0,038.4,031.1,014.3,0000.0,0003.77,0009.06,0003.13
2024-05-27 22:38:00,SystemResetWarning,0831.2,5.01,000.00,029.7,026.8,000.0,038.4,030.6,014.4,0000.0,0003.76,0009.28,0003.13
2024-05-27 22:39:00,SystemResetWarning,0831.3,5.01,000.00,029.6,027.2,000.0,038.3,030.6,013.4,0000.0,0003.84,0009.68,0003.13
2024-05-27 22:40:00,SystemResetWarning,0831.3,4.98,000.00,029.6,027.5,000.0,038.2,030.9,014.2,0000.0,0003.87,0010.21,0003.14
2024-05-27 22:41:00,SystemResetWarning,0831.3,5.00,000.00,029.7,027.9,000.0,038.2,031.1,014.4,0000.0,0003.91,0010.56,0003.15
2024-05-27 22:42:00,SystemResetWarning,0831.3,5.01,000.00,029.7,028.2,000.0,038.2,031.3,014.1,0000.0,0004.00,0011.56,0003.16
2024-05-27 22:43:00,SystemResetWarning,0831.3,5.00,000.00,029.8,028.5,000.0,038.1,031.4,014.1,0000.0,0004.10,0012.94,0003.17
2024-05-27 22:44:00,SystemResetWarning,0831.3,5.01,000.00,029.8,028.8,000.0,038.1,031.5,014.4,0000.0,0004.14,0013.44,0003.18
2024-05-27 22:45:00,SystemResetWarning,0831.3,4.99,000.00,029.9,029.0,000.0,038.2,031.6,013.4,0000.0,0004.28,0015.25,0003.19
2024-05-27 22:46:00,SystemResetWarning,0831.3,5.00,000.00,029.9,029.2,000.0,038.2,031.7,013.5,0000.0,0004.34,0015.73,0003.19
2024-05-27 22:47:00,SystemResetWarning,0831.3,4.99,000.00,030.0,029.3,000.0,038.2,031.8,013.6,0000.0,0004.38,0015.89,0003.20
2024-05-27 22:48:00,SystemResetWarning,0831.3,5.00,000.00,030.1,029.4,000.0,038.2,031.8,013.8,0000.0,0004.40,0015.64,0003.18
2024-05-27 22:49:00,SystemResetWarning,0831.3,5.00,000.00,030.1,029.6,000.0,038.3,031.9,013.1,0000.0,0004.46,0016.69,0003.18
2024-05-27 22:50:00,SystemResetWarning,0831.3,5.01,000.00,030.2,029.6,000.0,038.3,032.0,013.0,0000.0,0004.43,0016.73,0003.17
2024-05-27 22:51:00,SystemResetWarning,0831.3,5.00,000.00,030.2,029.7,000.0,038.3,032.0,013.4,0000.0,0004.40,0016.86,0003.17
2024-05-27 22:52:00,SystemResetWarning,0831.3,5.00,000.00,030.3,029.7,000.0,038.4,032.0,013.5,0000.0,0004.39,0017.07,0003.16
2024-05-27 22:53:00,SystemResetWarning,0831.3,4.98,000.00,030.1,027.7,000.0,038.4,031.1,013.7,0000.0,0004.35,0017.27,0003.14
2024-05-27 22:54:00,SystemResetWarning,0831.3,5.03,000.00,029.7,026.8,000.0,038.4,030.6,014.0,0000.0,0004.24,0015.71,0003.13
2024-05-27 22:55:00,SystemResetWarning,0831.3,4.99,000.00,029.6,027.1,000.0,038.4,030.6,013.9,0000.0,0004.22,0014.81,0003.13
2024-05-27 22:56:00,SystemResetWarning,0831.3,4.99,000.00,029.6,027.5,000.0,038.2,030.9,014.6,0000.0,0004.11,0013.53,0003.12
2024-05-27 22:57:00,SystemResetWarning,0831.3,5.00,000.00,029.7,027.9,000.0,038.2,031.1,015.3,0000.0,0004.05,0012.81,0003.12
2024-05-27 22:58:00,SystemResetWarning,0831.3,5.01,000.00,029.7,028.2,000.0,038.1,031.3,015.3,0000.0,0004.01,0013.54,0003.12
2024-05-27 22:59:00,SystemResetWarning,0831.3,5.01,000.00,029.8,028.5,000.0,038.1,031.4,013.9,0000.0,0004.05,0013.66,0003.12
